Location: La Plant
(45.1447°N, 100.6515°W)
Time: 21:40:42
(UTC+00:00)

ISS - Pass Details

Date: 26 November 2020
Orbit: 418 x 419 km, 51.6° (Epoch: 18 January)

Event Time Altitude Azimuth Distance (km) Brightness Sun altitude
Rises 01:32:09 0° 279° (W) 2,366 1.3 -25.5°
Reaches altitude 10° 01:34:27 10° 292° (WNW) 1,502 -0.1 -25.9°
Enters shadow 01:35:52 19° 311° (NW) 1,057 -1.3 -26.2°
